Weather History for KCOT - July, 2013

Change the Weather History Date:

Wednesday, July 17, 2013

  Actual Average Record
Temperature  
Mean Temperature 80 °F -  
Max Temperature 89 °F 96 °F 104 °F (1998)
Min Temperature 73 °F 72 °F 73 °F (1997)
Cooling Degree Days 15    
Growing Degree Days 30 (Base 50)    
Moisture  
Dew Point 72 °F    
Average Humidity 81    
Maximum Humidity 94    
Minimum Humidity 61    
Precipitation  
Precipitation 0.01 in - - ()
Sea Level Pressure  
Sea Level Pressure 30.08 in    
Wind  
Wind Speed 9 mph (East)    
Max Wind Speed 18 mph    
Max Gust Speed 24 mph    
Visibility 10 miles    
Events Rain    
Averages and records for this station are not official NWS values.
T = Trace of Precipitation, MM = Missing Value Source: NWS Daily Summary

Daily Weather History Graph

Daily Weather History Graph

Search for Another Location

Airport or City:

Trip Planner

Search our weather history database for the weather conditions in past years. The results will help you decide how hot, cold, wet, or windy it might be!

Date:

Astronomy

Jul. 17, 2013 Rise Set
Actual Time 6:50 AM CDT 8:35 PM CDT
Civil Twilight 6:24 AM CDT 9:01 PM CDT
Nautical Twilight 5:52 AM CDT 9:33 PM CDT
Astronomical Twilight 5:19 AM CDT 10:06 PM CDT
Moon 3:32 PM CDT (7/17) 1:49 AM CDT (7/17)
Length of Visible Light 14h 37m
Length of Day
13h 44m
Waxing Gibbous, 67% of the Moon is Illuminated
Jul 17
Waxing Gibbous
Jul 22
Full
Jul 29
Last Quarter
Aug 6
New
Aug 14
First Quarter

Hourly Weather History & Observations

Time (CDT) Temp. Heat Index Dew Point Humidity Pressure Visibility Wind Dir Wind Speed Gust Speed Precip Events Conditions
12:53 AM 77.0 °F - 72.0 °F 84% 30.06 in 10.0 mi East 6.9 mph - N/A   Scattered Clouds
1:53 AM 75.9 °F - 72.0 °F 87% 30.05 in 10.0 mi East 8.1 mph - N/A   Mostly Cloudy
2:53 AM 75.9 °F - 72.0 °F 87% 30.04 in 10.0 mi ENE 6.9 mph - N/A   Clear
3:44 AM 75.2 °F - 71.6 °F 89% 30.06 in 10.0 mi ENE 6.9 mph - N/A   Scattered Clouds
3:53 AM 75.0 °F - 72.0 °F 90% 30.04 in 10.0 mi ENE 8.1 mph - N/A   Scattered Clouds
4:53 AM 75.0 °F - 72.0 °F 90% 30.04 in 10.0 mi ENE 9.2 mph - N/A   Mostly Cloudy
5:36 AM 75.2 °F - 71.6 °F 89% 30.06 in 10.0 mi ENE 10.4 mph - N/A   Partly Cloudy
5:53 AM 75.0 °F - 72.0 °F 90% 30.04 in 10.0 mi East 9.2 mph - N/A   Scattered Clouds
6:08 AM 75.2 °F - 71.6 °F 89% 30.07 in 8.0 mi East 9.2 mph - 0.00 in Rain Light Rain
6:16 AM 75.2 °F - 71.6 °F 89% 30.07 in 9.0 mi ENE 6.9 mph - 0.00 in Rain Light Rain
6:21 AM 75.2 °F - 71.6 °F 89% 30.07 in 10.0 mi ENE 8.1 mph - 0.00 in Rain Light Rain
6:53 AM 73.9 °F - 72.0 °F 93% 30.06 in 10.0 mi ENE 8.1 mph - 0.00 in   Overcast
7:00 AM 73.4 °F - 71.6 °F 94% 30.09 in 10.0 mi ENE 9.2 mph - N/A   Overcast
7:13 AM 73.4 °F - 71.6 °F 94% 30.09 in 10.0 mi ENE 9.2 mph - N/A   Overcast
7:21 AM 73.4 °F - 71.6 °F 94% 30.09 in 10.0 mi ENE 10.4 mph - N/A   Overcast
7:29 AM 75.2 °F - 71.6 °F 89% 30.10 in 10.0 mi East 9.2 mph - N/A   Overcast
7:39 AM 73.4 °F - 71.6 °F 94% 30.10 in 10.0 mi East 10.4 mph - N/A   Mostly Cloudy
7:53 AM 75.0 °F - 72.0 °F 90% 30.08 in 10.0 mi East 11.5 mph - N/A   Mostly Cloudy
8:22 AM 75.2 °F - 71.6 °F 89% 30.11 in 10.0 mi ENE 10.4 mph - N/A   Overcast
8:53 AM 75.0 °F - 72.0 °F 90% 30.10 in 10.0 mi ENE 10.4 mph - 0.00 in   Overcast
9:53 AM 75.0 °F - 72.0 °F 90% 30.10 in 10.0 mi East 6.9 mph - 0.01 in   Mostly Cloudy
10:53 AM 78.1 °F - 72.0 °F 81% 30.12 in 10.0 mi East 10.4 mph - N/A   Scattered Clouds
11:42 AM 80.6 °F 84.6 °F 71.6 °F 74% 30.13 in 10.0 mi ESE 11.5 mph - N/A   Mostly Cloudy
11:53 AM 81.0 °F 85.2 °F 72.0 °F 74% 30.11 in 10.0 mi ESE 10.4 mph - N/A   Scattered Clouds
12:06 PM 82.4 °F 87.2 °F 71.6 °F 70% 30.13 in 10.0 mi East 10.4 mph - N/A   Mostly Cloudy
12:14 PM 84.2 °F 89.6 °F 71.6 °F 66% 30.12 in 10.0 mi East 10.4 mph - N/A   Scattered Clouds
12:30 PM 82.4 °F 87.2 °F 71.6 °F 70% 30.12 in 10.0 mi ESE 12.7 mph - N/A   Mostly Cloudy
12:53 PM 86.0 °F 92.2 °F 72.0 °F 63% 30.09 in 10.0 mi East 12.7 mph 19.6 mph N/A   Mostly Cloudy
1:01 PM 86.0 °F 91.8 °F 71.6 °F 62% 30.11 in 10.0 mi SE 11.5 mph 18.4 mph N/A   Scattered Clouds
1:53 PM 84.9 °F 90.1 °F 71.1 °F 63% 30.08 in 10.0 mi East 18.4 mph 24.2 mph 0.00 in Rain Light Rain
2:53 PM 87.1 °F 93.6 °F 72.0 °F 61% 30.05 in 10.0 mi East 10.4 mph 19.6 mph 0.00 in   Scattered Clouds
3:53 PM 86.0 °F 91.5 °F 71.1 °F 61% 30.04 in 10.0 mi East 12.7 mph 21.9 mph N/A   Partly Cloudy
4:53 PM 84.0 °F 90.2 °F 73.0 °F 69% 30.04 in 10.0 mi East 12.7 mph - N/A   Partly Cloudy
5:53 PM 82.9 °F 87.5 °F 71.1 °F 67% 30.04 in 10.0 mi East 16.1 mph 20.7 mph N/A   Partly Cloudy
6:53 PM 82.9 °F 87.0 °F 70.0 °F 65% 30.04 in 10.0 mi East 13.8 mph 19.6 mph N/A   Clear
7:53 PM 81.0 °F 84.1 °F 69.1 °F 67% 30.06 in 10.0 mi East 12.7 mph - N/A   Clear
8:53 PM 79.0 °F - 70.0 °F 74% 30.06 in 10.0 mi East 10.4 mph - N/A   Clear
9:53 PM 77.0 °F - 70.0 °F 79% 30.09 in 10.0 mi East 11.5 mph - N/A   Clear
10:53 PM 75.9 °F - 71.1 °F 85% 30.10 in 10.0 mi East 8.1 mph - N/A   Clear
11:53 PM 75.9 °F - 72.0 °F 87% 30.11 in 10.0 mi East 6.9 mph - N/A   Clear